Regional Weather Roundup
Issued by NWS

Home | Current Version | Previous Version | Text Only | Print | Product List | Glossary On
Versions: 1 2 3 4 5 6 7 8 9 10 11 12 13 14 15 16 17 18 19 20 21 22 23 24 25 26 27 28 29 30 31 32 33 34 35 36 37 38 39 40 41 42 43 44 45 46 47 48 49 50
000
ASUS46 KPQR 020910
RWROR

OREGON REGIONAL WEATHER ROUNDUP
NATIONAL WEATHER SERVICE PORTLAND OR
200 AM PDT SAT AUG 02 2014

NOTE: "FAIR" INDICATES FEW OR NO CLOUDS BELOW 12,000 FEET WITH
NO SIGNIFICANT WEATHER AND/OR OBSTRUCTIONS TO VISIBILITY.

ORZ001>013-021000-
NORTHWEST OREGON


CITY           SKY/WX    TMP DP  RH WIND       PRES   REMARKS
ASTORIA        CLOUDY    59  55  87 W8        30.00S
NEWPORT        CLOUDY    55  54  94 NW7       30.04S FOG
PORTLAND       CLEAR     70  56  61 NW5       29.94R
VANCOUVER WA   CLEAR     70  54  56 NW3       29.94R
SCAPPOOSE      CLEAR     67  54  63 N6        29.93R
HILLSBORO      CLEAR     64  54  69 NW3       29.94R
AURORA         CLEAR     66  57  72 W3        29.95S
MCMINNVILLE    CLEAR     64  54  69 W5        29.95S
SALEM          CLEAR     65  55  70 CALM      29.94S
CORVALLIS        N/A     61  54  77 NW10      29.98R
EUGENE         CLEAR     63  55  75 SW7       29.97R
$$

ORZ021-028-021000-
SOUTHWEST OREGON


CITY           SKY/WX    TMP DP  RH WIND       PRES   REMARKS
NORTH BEND     CLOUDY    61  59  94 N9        30.04S
BROOKINGS      FOG       55  55 100 CALM      29.96F VSB 1/4
ROSEBURG       CLEAR     68  53  58 CALM      29.98S
SEXTON SUMMIT  CLEAR     62  54  74 N13       30.07F
MEDFORD        PTCLDY    76  57  51 CALM      29.94R
$$

ORZ009-041-021000-
COLUMBIA GORGE


CITY           SKY/WX    TMP DP  RH WIND       PRES   REMARKS
TROUTDALE      CLEAR     69  57  65 W5        29.92S
THE DALLES     CLEAR     78  59  51 NW15      29.86R
$$

ORZ029>031-042>050-061>064-021000-
EASTERN OREGON


CITY           SKY/WX    TMP DP  RH WIND       PRES   REMARKS
REDMOND        CLEAR     62  48  60 S6        30.01R
BEND             N/A     66  50  55 CALM      30.05R
KLAMATH FALLS  CLEAR     61  51  70 S6        30.07S
LAKEVIEW       CLOUDY    52  37  58 N3        30.14R
HERMISTON      CLOUDY    74  55  51 E5        29.85S
PENDLETON      CLOUDY    78  51  38 S8        29.91S
JOHN DAY       PTSUNNY   72  48  42 E13       30.09S
MEACHAM        CLOUDY    64  51  62 CALM      30.09S
LA GRANDE      CLOUDY    77  43  29 SE7       30.00R
BAKER CITY     CLOUDY    68  49  50 NW9       30.06F
BURNS          CLEAR     61  45  55 N6        30.11R
ROME             N/A     78  40  25 S22G29    30.07F
ONTARIO        PTCLDY    70  50  49 W7        30.01R
$$


USA.gov is the U.S. government's official web portal to all federal, state and local government web resources and services.